Weather History for KIKW - December, 2012

Change the Weather History Date:

Monday, December 10, 2012

  Actual Average (KMBS) Record (KMBS)
Temperature  
Mean Temperature 29 °F 29 °F  
Max Temperature 33 °F 35 °F 46 °F (1999)
Min Temperature 25 °F 23 °F 2 °F (2013)
Degree Days  
Heating Degree Days 36    
Month to date heating degree days  
Since 1 July heating degree days  
Cooling Degree Days 0    
Month to date cooling degree days  
Year to date cooling degree days  
Moisture  
Dew Point 27 °F    
Average Humidity 85    
Maximum Humidity 100    
Minimum Humidity 69    
Precipitation  
Precipitation 0.00 in 0.06 in 0.27 in (2003)
Month to date precipitation 0.67  
Year to date precipitation 30.35  
Snow  
Snow 0.00 in - - ()
Month to date snowfall  
Since 1 July snowfall  
Snow Depth -    
Sea Level Pressure  
Sea Level Pressure 29.70 in    
Wind  
Wind Speed 4 mph (WNW)    
Max Wind Speed 13 mph    
Max Gust Speed 20 mph    
Visibility 8 miles    
Events Snow    
T = Trace of Precipitation, MM = Missing Value Source: NWS Daily Summary

Daily Weather History Graph

Daily Weather History Graph

Search for Another Location

Airport or City:

Trip Planner

Search our weather history database for the weather conditions in past years. The results will help you decide how hot, cold, wet, or windy it might be!

Date:

Astronomy

Dec. 10, 2012 Rise Set
Actual Time 8:00 AM EST 5:00 PM EST
Civil Twilight 7:27 AM EST 5:32 PM EST
Nautical Twilight 6:51 AM EST 6:08 PM EST
Astronomical Twilight 6:16 AM EST 6:43 PM EST
Moon 4:38 AM EST (12/10) 2:51 PM EST (12/10)
Length of Visible Light 10h 05m
Length of Day
9h 00m
Waning Crescent, 10% of the Moon is Illuminated
Dec 10
Waning Crescent
Dec 13
New
Dec 20
First Quarter
Dec 28
Full
Jan 4
Last Quarter

Hourly Weather History & Observations

Time (EST) Temp. Windchill Dew Point Humidity Pressure Visibility Wind Dir Wind Speed Gust Speed Precip Events Conditions
12:14 AM 33.1 °F - 32.9 °F 99% 29.65 in 2.0 mi Calm Calm - N/A   Overcast
12:33 AM 33.1 °F 30.0 °F 32.9 °F 99% 29.65 in 1.8 mi WNW 3.5 mph - N/A   Overcast
12:54 AM 33.1 °F - 32.9 °F 99% 29.65 in 1.5 mi Calm Calm - N/A   Overcast
1:14 AM 33.1 °F - 32.9 °F 99% 29.64 in 1.2 mi Calm Calm - N/A   Overcast
1:34 AM 33.1 °F - 32.9 °F 99% 29.62 in 0.8 mi Calm Calm - N/A   Overcast
1:54 AM 33.3 °F - 33.1 °F 99% 29.61 in 0.8 mi Calm Calm - N/A   Overcast
2:14 AM 33.1 °F - 32.9 °F 99% 29.61 in 0.8 mi Calm Calm - N/A   Overcast
2:34 AM 32.9 °F 29.8 °F 32.9 °F 100% 29.61 in 0.8 mi WSW 3.5 mph - N/A   Overcast
2:54 AM 32.9 °F 29.8 °F 32.9 °F 100% 29.60 in 0.8 mi WSW 3.5 mph - N/A   Overcast
3:14 AM 32.5 °F 28.1 °F 32.5 °F 100% 29.61 in 1.0 mi WSW 4.6 mph - N/A   Overcast
3:54 AM 32.5 °F - 32.5 °F 100% 29.59 in 1.0 mi Calm Calm - N/A   Overcast
4:14 AM 32.5 °F 28.1 °F 32.5 °F 100% 29.59 in 1.2 mi West 4.6 mph - N/A   Overcast
4:34 AM 32.5 °F 28.1 °F 32.5 °F 100% 29.60 in 1.2 mi West 4.6 mph - N/A   Overcast
4:54 AM 32.4 °F 29.1 °F 32.4 °F 100% 29.59 in 1.8 mi West 3.5 mph - N/A Snow Light Snow
5:14 AM 32.4 °F 29.1 °F 32.4 °F 100% 29.59 in 3.0 mi West 3.5 mph - N/A Snow Light Snow
5:34 AM 32.5 °F 29.3 °F 32.5 °F 100% 29.59 in 5.0 mi West 3.5 mph - N/A Snow Light Snow
5:54 AM 32.4 °F 29.1 °F 32.4 °F 100% 29.60 in 10.0 mi WSW 3.5 mph - N/A   Overcast
6:14 AM 32.4 °F 26.9 °F 32.4 °F 100% 29.59 in 10.0 mi West 5.8 mph - N/A   Overcast
6:34 AM 32.5 °F 28.1 °F 32.4 °F 99% 29.59 in 10.0 mi West 4.6 mph - N/A   Overcast
6:54 AM 32.4 °F 26.0 °F 32.2 °F 99% 29.59 in 10.0 mi West 6.9 mph - N/A   Overcast
7:14 AM 32.4 °F 26.9 °F 32.2 °F 99% 29.60 in 10.0 mi WNW 5.8 mph - N/A   Overcast
7:34 AM 32.4 °F 29.1 °F 32.0 °F 99% 29.60 in 10.0 mi WSW 3.5 mph - N/A   Overcast
7:54 AM 32.4 °F 27.9 °F 32.0 °F 99% 29.61 in 10.0 mi WSW 4.6 mph - N/A   Overcast
8:14 AM 32.2 °F 27.7 °F 32.0 °F 99% 29.62 in 10.0 mi West 4.6 mph - N/A   Overcast
8:23 AM 32.2 °F 26.7 °F 32.0 °F 99% 29.62 in 10.0 mi West 5.8 mph - N/A   Overcast
8:54 AM 32.0 °F 26.4 °F 31.6 °F 99% 29.64 in 10.0 mi West 5.8 mph - N/A   Overcast
9:14 AM 32.0 °F 25.6 °F 31.5 °F 98% 29.65 in 10.0 mi West 6.9 mph - N/A   Overcast
9:34 AM 32.0 °F 26.4 °F 31.1 °F 96% 29.66 in 10.0 mi West 5.8 mph - N/A   Overcast
9:54 AM 32.0 °F 23.6 °F 30.4 °F 94% 29.66 in 10.0 mi WNW 10.4 mph - N/A   Overcast
10:14 AM 32.0 °F 25.6 °F 30.2 °F 93% 29.66 in 10.0 mi NW 6.9 mph - N/A   Overcast
10:34 AM 32.0 °F 27.5 °F 29.8 °F 92% 29.67 in 10.0 mi NW 4.6 mph - N/A   Overcast
10:55 AM 32.0 °F 26.4 °F 29.3 °F 90% 29.67 in 10.0 mi WNW 5.8 mph - N/A   Overcast
11:14 AM 32.0 °F 24.8 °F 29.7 °F 91% 29.68 in 10.0 mi WNW 8.1 mph - N/A   Overcast
11:33 AM 32.2 °F 22.7 °F 29.5 °F 90% 29.68 in 10.0 mi WNW 12.7 mph 17.3 mph N/A   Overcast
11:54 AM 32.4 °F 23.5 °F 27.9 °F 83% 29.68 in 10.0 mi WNW 11.5 mph 17.3 mph N/A   Overcast
12:15 PM 32.7 °F 25.7 °F 28.8 °F 85% 29.67 in 10.0 mi WNW 8.1 mph - N/A   Overcast
12:34 PM 32.9 °F 27.5 °F 28.8 °F 85% 29.67 in 10.0 mi NW 5.8 mph - N/A   Overcast
12:54 PM 32.4 °F 25.3 °F 27.0 °F 80% 29.68 in 10.0 mi NW 8.1 mph 16.1 mph N/A   Overcast
1:14 PM 32.9 °F 25.9 °F 26.4 °F 77% 29.68 in 10.0 mi NW 8.1 mph - N/A   Overcast
1:34 PM 32.9 °F 27.5 °F 26.4 °F 77% 29.68 in 10.0 mi NW 5.8 mph - N/A   Overcast
1:54 PM 33.1 °F 27.7 °F 26.6 °F 77% 29.68 in 10.0 mi WNW 5.8 mph - N/A   Overcast
2:14 PM 33.1 °F 26.1 °F 26.4 °F 77% 29.68 in 10.0 mi WNW 8.1 mph - N/A   Overcast
2:34 PM 33.1 °F 26.9 °F 26.4 °F 77% 29.68 in 10.0 mi WNW 6.9 mph - N/A   Overcast
2:55 PM 33.1 °F 26.9 °F 26.2 °F 76% 29.68 in 10.0 mi WNW 6.9 mph - N/A   Overcast
3:14 PM 33.1 °F 24.9 °F 26.4 °F 77% 29.69 in 10.0 mi WNW 10.4 mph - N/A   Overcast
3:34 PM 33.1 °F 27.7 °F 25.0 °F 72% 29.69 in 10.0 mi WNW 5.8 mph - N/A   Overcast
3:55 PM 32.5 °F 24.8 °F 24.4 °F 72% 29.70 in 10.0 mi NW 9.2 mph 17.3 mph N/A   Overcast
4:14 PM 32.4 °F 23.5 °F 23.9 °F 71% 29.71 in 10.0 mi NW 11.5 mph - N/A   Overcast
4:35 PM 32.0 °F 24.2 °F 23.5 °F 71% 29.71 in 10.0 mi WNW 9.2 mph 16.1 mph N/A   Overcast
4:54 PM 32.0 °F 23.0 °F 23.9 °F 72% 29.71 in 10.0 mi NW 11.5 mph - N/A   Overcast
5:14 PM 31.6 °F 23.7 °F 22.6 °F 69% 29.72 in 10.0 mi WNW 9.2 mph - N/A   Overcast
5:34 PM 31.5 °F 23.5 °F 23.0 °F 71% 29.73 in 10.0 mi NNW 9.2 mph - N/A   Overcast
5:54 PM 31.5 °F 24.2 °F 23.0 °F 71% 29.75 in 10.0 mi NW 8.1 mph - N/A   Overcast
6:14 PM 31.1 °F 23.7 °F 23.2 °F 72% 29.77 in 10.0 mi WNW 8.1 mph 16.1 mph N/A   Overcast
6:34 PM 30.9 °F 25.2 °F 22.8 °F 72% 29.78 in 10.0 mi WNW 5.8 mph - N/A   Overcast
6:55 PM 30.2 °F 22.6 °F 22.1 °F 72% 29.80 in 10.0 mi NW 8.1 mph 19.6 mph N/A   Overcast
7:14 PM 29.7 °F 20.7 °F 21.2 °F 71% 29.80 in 10.0 mi NW 10.4 mph 17.3 mph N/A   Overcast
7:34 PM 29.1 °F 22.1 °F 21.0 °F 72% 29.82 in 10.0 mi NW 6.9 mph - N/A   Overcast
7:55 PM 28.9 °F 21.1 °F 20.7 °F 71% 29.82 in 10.0 mi WNW 8.1 mph - N/A   Overcast
8:14 PM 28.8 °F 21.7 °F 20.7 °F 72% 29.83 in 10.0 mi WNW 6.9 mph - N/A   Overcast
8:34 PM 28.4 °F 23.3 °F 20.7 °F 73% 29.83 in 10.0 mi NW 4.6 mph - N/A   Overcast
8:55 PM 28.4 °F 21.2 °F 20.8 °F 73% 29.82 in 10.0 mi North 6.9 mph - N/A   Overcast
9:14 PM 27.9 °F 20.6 °F 19.9 °F 72% 29.81 in 10.0 mi North 6.9 mph - N/A   Overcast
9:35 PM 27.5 °F 21.1 °F 19.0 °F 71% 29.84 in 10.0 mi North 5.8 mph - N/A   Overcast
9:54 PM 27.3 °F 20.9 °F 18.7 °F 70% 29.86 in 10.0 mi NNW 5.8 mph - N/A   Overcast
10:14 PM 27.0 °F 19.5 °F 18.9 °F 72% 29.87 in 10.0 mi NNW 6.9 mph - N/A   Overcast
10:35 PM 26.6 °F 20.0 °F 18.3 °F 71% 29.87 in 10.0 mi NNW 5.8 mph - N/A   Overcast
10:54 PM 26.4 °F 20.9 °F 18.1 °F 71% 29.88 in 10.0 mi North 4.6 mph - N/A   Overcast
11:14 PM 26.1 °F 21.9 °F 18.0 °F 71% 29.89 in 10.0 mi NNW 3.5 mph - N/A   Overcast
11:35 PM 25.7 °F 18.0 °F 18.5 °F 74% 29.88 in 10.0 mi NNW 6.9 mph - N/A   Overcast
11:54 PM 25.7 °F 21.5 °F 19.4 °F 77% 29.89 in 10.0 mi NNW 3.5 mph - N/A   Overcast